SOYUZ-MS 22

Last updated on Tue Mar 28 2023 00:02:06 GMT+0000 (Coordinated Universal Time)

1 53879U 22116A 23086.56083333 .00024998 00000+0 45015-3 0 9993 2 53879 51.6429 12.9576 0005803 136.6906 210.5712 15.49634740389122
UTC large
Height (km)
Speed (km/s)
/
Latitude / Longitude
Inclination (degrees)
Orbital Period (minutes)
Azimuth
Elevation
Range (km)
Doppler Factor

Next 0 passes for location: London (51.5072 / 0.1276)

Sorry there are no passes over London.